SCP
0 0 0 0 0 0 -0 -0 0 0 0 -0 -0 0 0 0 0 -0 0 0 -0 -0 -0 0 -0 -0 -0 -0 -0 -0 -1 -1 -0 -0 -0 -0 -0 -0 -0 -0 -0 0 0 0 0 0 0 0 0
0 0 0 0 0 0 -0 -0 -0 0 0 0 0 0 0 0 0 -0 0 -0 -0 -0 -0 0 -0 -0 -0 -0 -0 -0 -0 -0 -0 -0 -0 -0 -0 -0 -0 -0 -0 -0 0 0 0 0 -0 -0 -0
0 0 0 0 0 0 -0 -0 -0 0 0 0 0 0 0 0 0 -0 0 -0 -0 -0 -0 0 -0 -0 -0 -0 -0 -0 -0 -0 -0 -0 -0 -0 -0 -0 -0 -0 -0 -0 -0 0 0 -0 -0 -0 -0
0 0 0 0 0 0 0 0 0 0 0 0 -0 0 0 0 -0 -0 -1 -1 -1 -0 -0 -0 -0 -0 -0 -0 -0 -0 -0 -0 -0 -0 -0 -0 -0 -0 -0 -0 -0 -0 -0 -0 -0 -0 -0 -0 -0
0 0 0 0 0 0 0 0 0 0 0 0 0 0 0 0 -0 -0 -1 -1 -1 -0 0 -0 -0 -0 -0 -0 -0 -0 -0 -0 -0 -0 -0 -0 -0 -0 -0 -0 -0 -0 -0 -0 -0 -0 0 0 0
0 0 0 0 0 0 -0 0 0 0 0 0 0 0 0 0 -0 -0 -0 -0 0 0 0 0 -1 -1 -0 -0 -0 -0 -0 -0 -0 -0 -0 -0 -0 -0 -0 -0 0 -0 -0 -0 -0 -0 0 0 0
0 0 0 0 0 -0 -0 -0 0 0 0 -0 0 0 0 0 0 -0 0 0 0 0 0 0 0 -0 -0 -0 -0 -0 -0 -0 -0 -0 -0 -0 0 0 -0 -0 -0 -0 -0 -0 -0 0 0 0 0
0 0 0 0 0 -0 0 -0 0 0 0 0 -0 0 0 0 0 0 0 0 1 1 1 0 0 0 0 0 -0 -0 -0 -0 -0 -0 -0 -0 0 0 0 -0 0 -0 -0 0 0 0 0 0 0
0 0 0 0 0 0 0 0 0 0 0 0 0 0 -0 0 0 0 1 0 1 1 0 0 0 0 0 0 0 -0 -0 -0 -0 -0 -0 0 -0 -0 -0 0 0 0 0 0 0 0 0 0 0
0 0 0 0 0 0 0 0 0 0 0 0 0 0 0 1 0 0 0 0 0 0 0 0 -0 0 0 0 0 0 0 0 0 0 0 0 0 -0 -0 -0 0 0 0 0 0 0 0 0 0
0 0 0 0 0 0 0 0 -0 -0 -0 0 0 0 1 2 1 1 0 0 0 0 0 0 0 0 0 0 0 0 0 0 0 0 0 0 0 0 -0 0 0 -0 0 0 0 0 0 0 0
0 0 0 0 0 0 0 -0 -0 -0 -0 0 0 0 1 2 1 1 0 0 0 0 1 0 0 0 0 0 0 0 0 0 0 0 0 0 0 0 0 0 0 0 0 0 0 0 0 0 0
0 0 0 0 0 0 0 0 0 0 -0 0 0 0 1 0 1 1 1 1 1 1 0 1 0 0 0 0 0 0 0 0 0 0 0 0 0 0 0 0 0 0 0 0 0 0 0 0 0
0 0 0 0 0 0 0 0 0 0 -0 -0 0 0 0 1 0 2 2 1 1 1 0 0 0 1 1 1 0 0 0 0 0 0 0 0 0 0 0 0 0 0 0 0 0 0 0 0 0
0 0 0 0 0 0 0 0 0 0 0 0 0 0 0 1 1 1 1 1 1 0 0 0 1 1 1 1 1 1 0 0 0 0 0 0 0 0 0 0 0 0 0 0 0 0 0 0 0
0 0 0 0 0 0 0 -0 -0 -0 -0 0 0 0 0 0 0 1 2 2 1 1 0 0 1 0 1 1 1 1 1 0 0 0 0 0 0 0 0 0 0 0 0 0 0 0 0 0 0
0 0 0 0 0 0 0 -0 -0 0 0 0 0 0 0 0 0 0 1 2 2 1 0 0 0 0 1 0 0 0 0 0 0 0 0 0 0 0 0 0 0 0 0 0 0 0 0 0 0
0 0 0 0 0 0 0 0 0 0 0 0 0 0 0 0 0 0 0 1 1 0 0 0 0 0 0 0 0 0 0 0 0 0 0 0 0 0 0 0 0 0 0 0 0 0 0 0 0
0 0 0 0 0 0 0 0 0 -0 0 0 0 0 0 0 0 0 0 0 1 0 1 0 0 0 0 0 0 0 0 0 0 0 0 0 0 0 0 0 0 0 0 1 1 1 1 1 0
0 0 0 0 0 0 0 0 0 0 0 0 0 0 0 0 0 0 0 0 1 0 1 1 1 0 1 1 0 0 0 0 0 0 0 0 0 0 0 0 0 1 1 1 1 1 1 1 0
0 0 0 0 0 0 0 0 0 0 0 0 0 0 0 0 0 0 0 0 1 1 1 1 1 1 1 2 2 2 2 2 1 1 1 1 0 0 0 0 0 0 1 1 1 1 1 1 0
0 0 0 0 0 0 0 0 0 0 0 0 0 0 0 0 0 0 0 0 1 1 1 1 1 1 1 3 4 3 2 2 2 1 1 2 1 1 1 1 1 1 2 2 1 1 0 0 0
0 0 0 0 0 0 0 0 -0 -0 0 0 0 0 0 0 0 0 0 0 1 1 1 1 1 1 2 2 3 4 4 5 4 5 2 3 3 2 2 2 2 2 2 1 1 0 0 0 0
0 0 0 0 0 0 0 0 -0 0 0 0 0 0 0 0 0 0 0 0 0 2 2 2 2 1 2 3 3 3 4 4 5 6 5 5 4 3 3 3 3 2 2 1 0 0 0 0 0
0 0 0 0 0 0 0 0 0 0 0 0 0 0 0 0 0 0 0 0 0 2 2 2 2 1 2 3 5 3 3 3 3 5 7 5 4 4 3 3 2 2 1 0 0 0 0 0 0
0 0 0 0 0 0 0 0 0 0 0 0 0 0 0 0 0 0 0 0 0 1 3 3 2 2 2 3 4 5 3 5 6 5 4 3 3 2 1 1 0 0 0 0 0 0 0 0 0
0 0 0 0 0 0 0 0 0 0 0 0 0 0 0 0 0 0 0 0 0 0 5 4 3 2 2 2 3 5 3 5 4 3 2 1 1 1 0 0 0 0 0 0 0 0 0 0 0
0 0 0 0 0 0 0 0 -0 0 0 0 0 0 0 0 0 0 0 0 0 0 4 5 4 3 4 4 6 5 3 3 3 2 1 1 0 0 0 0 0 0 0 0 0 0 0 0 0
0 0 0 0 0 0 0 0 0 -0 0 0 0 0 0 0 0 0 0 0 0 0 1 7 7 7 8 9 7 4 2 2 2 2 1 0 0 0 0 0 0 0 0 0 0 0 0 0 0
0 0 0 0 0 0 0 -0 0 0 0 0 0 0 0 0 0 -0 0 0 0 0 0 5 10 10 9 8 5 3 2 2 1 0 0 0 0 0 0 0 0 0 0 0 0 0 0 0 0
Wind_Speed_500mb
14 15 10 5 5 8 8 14 7 12 14 13 8 9 15 8 12 8 28 50 60 78 75 67 57 51 49 49 51 52 51 48 44 42 42 43 43 42 41 39 36 35 35 35 33 31 29 28 28
7 9 10 4 8 1 12 9 18 7 17 29 3 7 10 6 9 13 55 56 54 78 78 71 62 54 50 47 48 49 50 49 47 46 48 48 45 42 39 37 35 33 33 34 33 32 31 30 29
9 10 8 8 8 16 13 10 14 7 24 38 8 12 8 7 24 16 34 61 71 78 78 73 66 58 52 48 45 46 46 48 49 51 50 48 45 41 38 35 34 33 32 32 32 31 30 29 28
11 9 4 7 20 17 26 13 5 7 27 17 10 7 19 19 16 27 57 65 74 81 78 75 69 62 55 50 45 43 45 48 50 51 51 46 42 40 37 35 33 32 32 31 31 30 29 28 27
15 7 4 7 17 14 9 23 24 10 3 22 41 15 14 18 22 32 72 68 83 83 81 78 72 65 59 53 47 44 44 48 49 50 49 45 41 39 37 34 33 32 32 32 31 31 30 29 28
10 4 2 16 16 23 8 28 22 11 13 31 18 18 39 30 24 40 68 71 79 78 83 79 73 67 62 56 51 47 44 46 49 49 47 44 40 38 36 34 32 31 31 31 32 32 32 30 29
12 8 12 10 12 28 8 19 13 11 21 14 29 14 18 32 32 49 71 74 81 81 82 80 74 68 63 58 53 48 45 44 47 48 45 43 40 38 35 33 32 31 30 30 31 30 30 27 25
11 8 8 13 16 22 5 14 18 13 15 14 12 10 15 53 52 61 72 83 86 83 81 81 77 72 67 63 56 51 48 45 44 46 46 43 41 38 35 34 32 29 27 26 26 25 24 22 20
14 2 12 16 21 10 8 3 6 17 22 37 34 40 44 32 65 79 84 90 90 85 84 83 80 75 70 66 61 54 50 46 42 43 45 45 43 39 36 32 29 26 25 24 23 22 21 19 18
11 10 23 17 33 14 8 1 18 16 30 27 29 28 31 43 71 92 94 98 96 94 91 86 83 78 73 70 67 63 57 54 50 47 49 48 45 39 34 30 28 26 24 21 19 17 16 15 15
16 24 22 5 31 25 25 24 15 9 13 8 26 30 38 69 81 87 91 96 105 101 95 91 85 81 79 76 73 70 66 61 56 50 46 44 43 41 38 35 32 27 23 19 17 15 13 12 15
10 26 42 5 32 18 8 13 16 27 51 45 44 40 48 78 93 92 89 94 98 101 98 92 87 83 80 78 78 76 73 67 63 55 47 44 43 44 43 39 33 28 22 19 16 16 16 14 17
13 8 19 47 55 57 55 38 23 64 85 55 59 56 51 63 87 92 83 85 95 96 93 90 86 81 78 76 77 75 74 70 61 55 50 46 43 42 40 40 37 31 26 19 14 9 11 11 11
10 20 36 46 40 31 25 16 22 83 63 44 47 50 40 78 79 87 80 81 85 90 89 90 85 81 75 74 72 73 71 62 60 57 52 48 44 39 39 39 39 34 27 22 17 13 13 17 20
13 16 21 14 13 15 26 24 50 70 54 40 34 43 32 77 82 87 90 87 82 81 84 88 86 82 77 74 70 68 63 63 60 56 51 48 44 42 41 39 37 34 31 27 22 19 20 21 23
8 7 1 10 15 17 17 51 52 30 36 39 42 51 50 39 77 84 92 87 88 86 82 80 85 82 80 75 72 67 63 60 57 53 49 46 44 43 43 41 38 30 26 24 23 24 29 31 31
1 10 9 14 1 6 27 49 11 36 36 39 40 47 51 47 49 86 84 90 88 90 82 81 84 83 82 77 69 64 62 61 56 50 48 46 45 44 43 41 35 30 29 26 24 27 34 36 37
10 12 10 13 9 16 32 50 16 14 25 38 49 58 51 51 45 76 93 91 88 90 88 82 84 77 77 73 70 66 63 60 58 54 47 45 42 42 41 39 34 28 29 28 29 32 32 34 38
16 25 28 22 13 14 30 42 23 14 30 27 48 56 56 54 53 61 76 88 94 88 85 87 87 81 78 79 76 74 70 64 58 57 45 43 39 35 29 25 28 31 33 33 36 34 35 41 46
21 26 32 30 30 27 41 55 32 24 28 32 42 55 65 67 58 52 75 76 88 92 92 97 93 88 82 78 73 73 70 65 56 50 50 43 40 37 32 25 24 26 23 19 22 32 38 40 48
28 28 26 21 23 24 33 49 29 18 28 47 54 46 58 74 75 65 60 79 88 88 88 90 97 95 89 80 76 74 68 65 61 58 56 53 46 43 35 31 31 26 25 28 32 36 41 48 51
25 22 18 23 7 10 9 28 20 11 25 21 40 53 58 64 76 82 77 71 85 82 76 81 88 98 97 89 83 82 78 74 73 67 62 58 53 41 31 28 36 25 30 32 39 41 44 50 52
30 10 8 16 12 5 9 8 8 13 14 17 20 50 55 56 62 80 84 83 80 78 80 81 76 91 104 99 89 86 81 73 72 69 59 54 51 44 41 36 31 28 29 32 44 49 52 52 42
3 7 2 2 9 11 23 14 19 18 19 13 13 40 45 47 41 59 74 79 87 85 83 84 87 84 99 104 94 93 84 74 74 66 70 65 58 48 42 36 30 27 37 42 44 53 51 35 28
9 9 3 7 12 12 17 15 33 17 19 22 23 39 59 57 51 48 57 73 90 92 86 86 90 96 101 106 103 102 90 78 73 72 76 75 66 48 46 42 44 30 53 41 49 36 29 31 21
18 26 10 13 7 5 3 11 24 32 28 45 49 55 56 65 62 53 53 65 71 85 85 90 87 93 100 101 104 103 89 80 75 68 69 67 63 52 42 30 28 32 48 38 30 27 27 23 26
9 16 20 8 4 2 9 14 34 13 22 15 24 45 45 45 51 51 56 60 73 82 76 82 91 93 92 103 102 102 96 81 65 52 49 48 38 40 37 22 36 47 36 33 29 27 27 27 27
10 9 7 3 9 9 10 11 27 6 5 6 7 14 26 33 44 43 44 52 67 80 84 77 79 89 92 104 104 99 101 67 58 48 55 46 34 33 32 40 54 39 33 24 26 26 26 22 21
3 3 5 6 6 9 3 14 10 15 8 8 12 22 33 41 49 54 56 52 46 58 79 86 84 83 88 99 103 100 69 67 56 49 45 43 36 43 60 41 39 29 27 25 23 22 17 20 19
4 1 8 7 7 8 5 21 9 11 10 10 14 32 38 44 57 58 57 54 56 63 69 86 88 82 79 88 97 82 68 64 60 54 46 44 44 44 39 36 27 27 25 21 20 19 20 22 23
Wind_Direction_500mb
254 248 242 292 43 63 256 254 261 293 349 348 266 170 222 216 169 214 147 160 165 171 168 167 167 164 162 160 162 165 167 165 162 161 160 156 151 149 148 148 149 149 150 152 152 149 145 140 134
237 229 213 143 111 178 261 229 244 227 275 315 304 188 272 253 174 159 150 164 167 171 170 169 169 167 163 161 160 163 164 161 160 159 155 152 151 151 151 152 152 151 151 150 149 146 144 141 139
240 191 170 145 166 211 233 206 224 236 309 305 305 229 243 224 219 176 172 160 172 172 173 171 171 170 167 164 162 160 161 160 159 157 156 155 154 153 154 156 155 155 154 152 150 147 147 146 145
201 164 133 135 219 242 225 224 276 341 319 334 257 236 268 252 228 194 170 166 174 175 174 174 173 173 171 167 165 160 159 161 159 158 158 158 157 156 157 159 158 157 159 157 157 154 153 154 155
186 172 153 227 249 256 225 238 266 284 67 275 315 282 264 259 219 190 174 173 177 175 175 176 176 176 175 172 168 164 160 161 160 161 162 161 161 159 160 160 160 162 165 165 165 162 161 163 167
168 136 133 223 244 250 278 236 258 240 208 273 285 271 275 252 233 189 177 176 179 177 176 178 177 179 179 177 173 169 163 162 165 165 165 165 165 163 162 161 162 165 169 170 169 167 167 170 172
153 121 216 219 247 260 252 223 229 264 263 195 277 244 252 239 199 185 181 179 180 180 178 180 179 181 182 181 179 175 169 166 170 171 169 168 168 167 165 165 166 169 171 173 173 172 172 175 180
201 129 221 223 216 259 194 197 264 226 287 358 324 234 227 215 189 185 182 182 181 180 181 182 182 182 184 184 184 182 177 173 174 176 176 175 174 173 172 173 173 172 172 174 177 180 183 189 195
185 143 230 214 197 226 160 133 264 300 276 329 306 299 264 222 185 180 179 181 182 182 185 185 184 185 186 186 186 187 185 181 180 181 183 185 184 181 181 180 180 178 178 180 185 194 206 220 231
174 181 222 201 218 205 194 168 335 316 309 314 332 321 228 200 187 183 181 182 184 185 186 188 188 187 188 188 190 190 191 190 189 189 189 192 192 191 188 187 188 188 189 192 197 207 220 236 252
196 234 246 236 243 243 264 277 271 292 294 186 331 325 205 194 189 189 188 187 187 186 187 190 191 190 191 191 192 193 195 196 197 196 196 196 198 198 197 198 199 196 197 199 209 218 232 245 256
234 238 242 272 233 244 253 272 272 256 255 270 287 312 192 188 189 192 194 191 191 189 190 189 193 194 194 195 197 198 198 199 201 201 201 202 202 204 205 206 205 205 206 212 220 237 244 256 267
241 263 248 246 247 257 267 265 277 273 262 260 266 282 218 201 197 196 199 193 193 191 194 194 194 197 198 199 202 203 204 204 204 206 206 209 210 212 212 213 214 212 213 215 201 219 229 237 269
244 236 259 264 259 255 254 267 248 259 268 258 261 261 251 212 209 199 199 200 197 196 198 197 197 199 200 203 207 209 210 209 209 211 213 215 216 217 220 220 220 217 213 206 215 226 245 257 263
273 289 293 236 218 234 232 252 236 252 275 281 256 257 250 215 217 214 209 207 201 200 199 199 200 202 202 205 207 210 212 212 214 215 216 219 221 220 220 223 222 219 218 217 223 239 254 272 271
288 256 237 297 192 209 172 258 247 241 252 260 252 256 247 225 217 223 221 214 204 203 199 200 203 205 206 207 206 208 209 213 216 219 219 220 222 222 223 223 220 213 214 226 241 255 268 276 276
254 272 282 315 359 308 198 258 260 245 245 250 258 255 255 234 227 219 222 220 211 209 205 203 203 206 208 208 209 209 210 212 213 216 220 220 222 221 222 222 223 223 228 238 259 269 269 278 285
247 255 232 247 284 235 252 260 291 311 263 253 248 252 252 243 220 214 217 226 220 216 212 209 205 206 208 209 209 209 209 212 213 215 217 216 217 220 221 220 220 229 242 246 257 267 275 285 290
255 265 266 262 286 323 276 282 289 272 253 252 248 253 254 254 240 203 205 213 222 228 223 214 208 207 205 204 207 209 209 208 213 210 205 204 205 207 206 206 217 230 248 259 259 265 277 279 281
239 252 263 272 264 258 272 277 276 261 259 248 243 248 246 249 245 206 194 196 207 210 216 219 214 207 206 206 208 212 212 215 218 212 206 206 206 208 212 213 220 227 243 264 264 266 276 281 285
237 243 254 253 265 257 273 277 269 253 258 250 251 250 253 247 245 218 197 203 209 208 210 215 216 214 210 210 212 211 213 218 217 216 214 211 209 214 213 220 229 235 244 264 273 281 282 287 290
247 238 263 292 240 247 154 277 262 242 242 230 242 244 244 245 247 241 230 214 206 205 206 208 213 216 215 216 218 214 215 216 219 217 214 216 214 213 217 219 230 234 249 267 276 279 287 287 290
257 136 240 284 302 279 261 272 271 180 244 247 235 242 240 248 246 241 240 232 220 209 202 205 209 215 216 218 224 222 222 228 226 220 217 220 220 220 223 227 232 222 241 264 273 270 276 281 290
150 227 291 242 238 231 231 194 265 238 205 245 253 244 244 240 248 249 246 233 224 220 214 209 208 213 216 219 226 224 227 230 226 224 219 217 219 219 224 230 219 225 245 257 254 262 272 278 276
166 118 275 248 211 234 226 213 248 288 259 227 243 261 265 262 264 261 244 235 227 218 217 216 213 210 215 219 222 222 226 232 233 234 223 218 220 224 228 212 213 234 252 259 259 269 266 263 266
193 197 184 218 226 276 226 214 258 219 252 246 257 265 268 270 266 263 254 241 233 222 224 222 218 216 213 215 221 224 225 229 230 236 234 228 226 217 211 222 248 270 258 247 246 242 250 249 268
191 193 222 199 199 293 206 263 281 204 251 231 243 251 266 278 270 269 260 247 231 220 225 227 220 212 214 216 221 225 225 224 229 234 232 227 197 201 191 215 245 237 228 228 227 237 256 264 268
198 174 115 273 179 220 240 230 233 357 284 205 318 293 289 284 270 260 257 250 235 227 229 229 223 214 212 214 220 225 228 219 225 225 228 215 193 193 249 205 222 218 220 217 237 252 263 265 255
189 180 74 126 138 214 242 252 218 210 224 271 277 283 295 294 287 267 252 249 253 246 231 223 218 213 214 212 217 220 214 216 218 211 216 227 218 210 210 198 197 205 215 224 243 244 237 238 258
111 169 169 144 190 236 262 255 181 165 202 220 275 294 301 298 290 274 260 249 247 244 237 221 211 206 215 212 214 208 205 209 216 203 200 214 215 203 197 193 203 207 215 211 215 230 246 265 277
Wind_Speed_850mb
14 15 10 5 5 8 8 14 7 12 14 13 8 9 15 8 12 8 28 50 60 78 75 67 57 51 49 49 51 52 51 48 44 42 42 43 43 42 41 39 36 35 35 35 33 31 29 28 28
7 9 10 4 8 1 12 9 18 7 17 29 3 7 10 6 9 13 55 56 54 78 78 71 62 54 50 47 48 49 50 49 47 46 48 48 45 42 39 37 35 33 33 34 33 32 31 30 29
9 10 8 8 8 16 13 10 14 7 24 38 8 12 8 7 24 16 34 61 71 78 78 73 66 58 52 48 45 46 46 48 49 51 50 48 45 41 38 35 34 33 32 32 32 31 30 29 28
11 9 4 7 20 17 26 13 5 7 27 17 10 7 19 19 16 27 57 65 74 81 78 75 69 62 55 50 45 43 45 48 50 51 51 46 42 40 37 35 33 32 32 31 31 30 29 28 27
15 7 4 7 17 14 9 23 24 10 3 22 41 15 14 18 22 32 72 68 83 83 81 78 72 65 59 53 47 44 44 48 49 50 49 45 41 39 37 34 33 32 32 32 31 31 30 29 28
10 4 2 16 16 23 8 28 22 11 13 31 18 18 39 30 24 40 68 71 79 78 83 79 73 67 62 56 51 47 44 46 49 49 47 44 40 38 36 34 32 31 31 31 32 32 32 30 29
12 8 12 10 12 28 8 19 13 11 21 14 29 14 18 32 32 49 71 74 81 81 82 80 74 68 63 58 53 48 45 44 47 48 45 43 40 38 35 33 32 31 30 30 31 30 30 27 25
11 8 8 13 16 22 5 14 18 13 15 14 12 10 15 53 52 61 72 83 86 83 81 81 77 72 67 63 56 51 48 45 44 46 46 43 41 38 35 34 32 29 27 26 26 25 24 22 20
14 2 12 16 21 10 8 3 6 17 22 37 34 40 44 32 65 79 84 90 90 85 84 83 80 75 70 66 61 54 50 46 42 43 45 45 43 39 36 32 29 26 25 24 23 22 21 19 18
11 10 23 17 33 14 8 1 18 16 30 27 29 28 31 43 71 92 94 98 96 94 91 86 83 78 73 70 67 63 57 54 50 47 49 48 45 39 34 30 28 26 24 21 19 17 16 15 15
16 24 22 5 31 25 25 24 15 9 13 8 26 30 38 69 81 87 91 96 105 101 95 91 85 81 79 76 73 70 66 61 56 50 46 44 43 41 38 35 32 27 23 19 17 15 13 12 15
10 26 42 5 32 18 8 13 16 27 51 45 44 40 48 78 93 92 89 94 98 101 98 92 87 83 80 78 78 76 73 67 63 55 47 44 43 44 43 39 33 28 22 19 16 16 16 14 17
13 8 19 47 55 57 55 38 23 64 85 55 59 56 51 63 87 92 83 85 95 96 93 90 86 81 78 76 77 75 74 70 61 55 50 46 43 42 40 40 37 31 26 19 14 9 11 11 11
10 20 36 46 40 31 25 16 22 83 63 44 47 50 40 78 79 87 80 81 85 90 89 90 85 81 75 74 72 73 71 62 60 57 52 48 44 39 39 39 39 34 27 22 17 13 13 17 20
13 16 21 14 13 15 26 24 50 70 54 40 34 43 32 77 82 87 90 87 82 81 84 88 86 82 77 74 70 68 63 63 60 56 51 48 44 42 41 39 37 34 31 27 22 19 20 21 23
8 7 1 10 15 17 17 51 52 30 36 39 42 51 50 39 77 84 92 87 88 86 82 80 85 82 80 75 72 67 63 60 57 53 49 46 44 43 43 41 38 30 26 24 23 24 29 31 31
1 10 9 14 1 6 27 49 11 36 36 39 40 47 51 47 49 86 84 90 88 90 82 81 84 83 82 77 69 64 62 61 56 50 48 46 45 44 43 41 35 30 29 26 24 27 34 36 37
10 12 10 13 9 16 32 50 16 14 25 38 49 58 51 51 45 76 93 91 88 90 88 82 84 77 77 73 70 66 63 60 58 54 47 45 42 42 41 39 34 28 29 28 29 32 32 34 38
16 25 28 22 13 14 30 42 23 14 30 27 48 56 56 54 53 61 76 88 94 88 85 87 87 81 78 79 76 74 70 64 58 57 45 43 39 35 29 25 28 31 33 33 36 34 35 41 46
21 26 32 30 30 27 41 55 32 24 28 32 42 55 65 67 58 52 75 76 88 92 92 97 93 88 82 78 73 73 70 65 56 50 50 43 40 37 32 25 24 26 23 19 22 32 38 40 48
28 28 26 21 23 24 33 49 29 18 28 47 54 46 58 74 75 65 60 79 88 88 88 90 97 95 89 80 76 74 68 65 61 58 56 53 46 43 35 31 31 26 25 28 32 36 41 48 51
25 22 18 23 7 10 9 28 20 11 25 21 40 53 58 64 76 82 77 71 85 82 76 81 88 98 97 89 83 82 78 74 73 67 62 58 53 41 31 28 36 25 30 32 39 41 44 50 52
30 10 8 16 12 5 9 8 8 13 14 17 20 50 55 56 62 80 84 83 80 78 80 81 76 91 104 99 89 86 81 73 72 69 59 54 51 44 41 36 31 28 29 32 44 49 52 52 42
3 7 2 2 9 11 23 14 19 18 19 13 13 40 45 47 41 59 74 79 87 85 83 84 87 84 99 104 94 93 84 74 74 66 70 65 58 48 42 36 30 27 37 42 44 53 51 35 28
9 9 3 7 12 12 17 15 33 17 19 22 23 39 59 57 51 48 57 73 90 92 86 86 90 96 101 106 103 102 90 78 73 72 76 75 66 48 46 42 44 30 53 41 49 36 29 31 21
18 26 10 13 7 5 3 11 24 32 28 45 49 55 56 65 62 53 53 65 71 85 85 90 87 93 100 101 104 103 89 80 75 68 69 67 63 52 42 30 28 32 48 38 30 27 27 23 26
9 16 20 8 4 2 9 14 34 13 22 15 24 45 45 45 51 51 56 60 73 82 76 82 91 93 92 103 102 102 96 81 65 52 49 48 38 40 37 22 36 47 36 33 29 27 27 27 27
10 9 7 3 9 9 10 11 27 6 5 6 7 14 26 33 44 43 44 52 67 80 84 77 79 89 92 104 104 99 101 67 58 48 55 46 34 33 32 40 54 39 33 24 26 26 26 22 21
3 3 5 6 6 9 3 14 10 15 8 8 12 22 33 41 49 54 56 52 46 58 79 86 84 83 88 99 103 100 69 67 56 49 45 43 36 43 60 41 39 29 27 25 23 22 17 20 19
4 1 8 7 7 8 5 21 9 11 10 10 14 32 38 44 57 58 57 54 56 63 69 86 88 82 79 88 97 82 68 64 60 54 46 44 44 44 39 36 27 27 25 21 20 19 20 22 23
Wind_Direction_850mb
254 248 242 292 43 63 256 254 261 293 349 348 266 170 222 216 169 214 147 160 165 171 168 167 167 164 162 160 162 165 167 165 162 161 160 156 151 149 148 148 149 149 150 152 152 149 145 140 134
237 229 213 143 111 178 261 229 244 227 275 315 304 188 272 253 174 159 150 164 167 171 170 169 169 167 163 161 160 163 164 161 160 159 155 152 151 151 151 152 152 151 151 150 149 146 144 141 139
240 191 170 145 166 211 233 206 224 236 309 305 305 229 243 224 219 176 172 160 172 172 173 171 171 170 167 164 162 160 161 160 159 157 156 155 154 153 154 156 155 155 154 152 150 147 147 146 145
201 164 133 135 219 242 225 224 276 341 319 334 257 236 268 252 228 194 170 166 174 175 174 174 173 173 171 167 165 160 159 161 159 158 158 158 157 156 157 159 158 157 159 157 157 154 153 154 155
186 172 153 227 249 256 225 238 266 284 67 275 315 282 264 259 219 190 174 173 177 175 175 176 176 176 175 172 168 164 160 161 160 161 162 161 161 159 160 160 160 162 165 165 165 162 161 163 167
168 136 133 223 244 250 278 236 258 240 208 273 285 271 275 252 233 189 177 176 179 177 176 178 177 179 179 177 173 169 163 162 165 165 165 165 165 163 162 161 162 165 169 170 169 167 167 170 172
153 121 216 219 247 260 252 223 229 264 263 195 277 244 252 239 199 185 181 179 180 180 178 180 179 181 182 181 179 175 169 166 170 171 169 168 168 167 165 165 166 169 171 173 173 172 172 175 180
201 129 221 223 216 259 194 197 264 226 287 358 324 234 227 215 189 185 182 182 181 180 181 182 182 182 184 184 184 182 177 173 174 176 176 175 174 173 172 173 173 172 172 174 177 180 183 189 195
185 143 230 214 197 226 160 133 264 300 276 329 306 299 264 222 185 180 179 181 182 182 185 185 184 185 186 186 186 187 185 181 180 181 183 185 184 181 181 180 180 178 178 180 185 194 206 220 231
174 181 222 201 218 205 194 168 335 316 309 314 332 321 228 200 187 183 181 182 184 185 186 188 188 187 188 188 190 190 191 190 189 189 189 192 192 191 188 187 188 188 189 192 197 207 220 236 252
196 234 246 236 243 243 264 277 271 292 294 186 331 325 205 194 189 189 188 187 187 186 187 190 191 190 191 191 192 193 195 196 197 196 196 196 198 198 197 198 199 196 197 199 209 218 232 245 256
234 238 242 272 233 244 253 272 272 256 255 270 287 312 192 188 189 192 194 191 191 189 190 189 193 194 194 195 197 198 198 199 201 201 201 202 202 204 205 206 205 205 206 212 220 237 244 256 267
241 263 248 246 247 257 267 265 277 273 262 260 266 282 218 201 197 196 199 193 193 191 194 194 194 197 198 199 202 203 204 204 204 206 206 209 210 212 212 213 214 212 213 215 201 219 229 237 269
244 236 259 264 259 255 254 267 248 259 268 258 261 261 251 212 209 199 199 200 197 196 198 197 197 199 200 203 207 209 210 209 209 211 213 215 216 217 220 220 220 217 213 206 215 226 245 257 263
273 289 293 236 218 234 232 252 236 252 275 281 256 257 250 215 217 214 209 207 201 200 199 199 200 202 202 205 207 210 212 212 214 215 216 219 221 220 220 223 222 219 218 217 223 239 254 272 271
288 256 237 297 192 209 172 258 247 241 252 260 252 256 247 225 217 223 221 214 204 203 199 200 203 205 206 207 206 208 209 213 216 219 219 220 222 222 223 223 220 213 214 226 241 255 268 276 276
254 272 282 315 359 308 198 258 260 245 245 250 258 255 255 234 227 219 222 220 211 209 205 203 203 206 208 208 209 209 210 212 213 216 220 220 222 221 222 222 223 223 228 238 259 269 269 278 285
247 255 232 247 284 235 252 260 291 311 263 253 248 252 252 243 220 214 217 226 220 216 212 209 205 206 208 209 209 209 209 212 213 215 217 216 217 220 221 220 220 229 242 246 257 267 275 285 290
255 265 266 262 286 323 276 282 289 272 253 252 248 253 254 254 240 203 205 213 222 228 223 214 208 207 205 204 207 209 209 208 213 210 205 204 205 207 206 206 217 230 248 259 259 265 277 279 281
239 252 263 272 264 258 272 277 276 261 259 248 243 248 246 249 245 206 194 196 207 210 216 219 214 207 206 206 208 212 212 215 218 212 206 206 206 208 212 213 220 227 243 264 264 266 276 281 285
237 243 254 253 265 257 273 277 269 253 258 250 251 250 253 247 245 218 197 203 209 208 210 215 216 214 210 210 212 211 213 218 217 216 214 211 209 214 213 220 229 235 244 264 273 281 282 287 290
247 238 263 292 240 247 154 277 262 242 242 230 242 244 244 245 247 241 230 214 206 205 206 208 213 216 215 216 218 214 215 216 219 217 214 216 214 213 217 219 230 234 249 267 276 279 287 287 290
257 136 240 284 302 279 261 272 271 180 244 247 235 242 240 248 246 241 240 232 220 209 202 205 209 215 216 218 224 222 222 228 226 220 217 220 220 220 223 227 232 222 241 264 273 270 276 281 290
150 227 291 242 238 231 231 194 265 238 205 245 253 244 244 240 248 249 246 233 224 220 214 209 208 213 216 219 226 224 227 230 226 224 219 217 219 219 224 230 219 225 245 257 254 262 272 278 276
166 118 275 248 211 234 226 213 248 288 259 227 243 261 265 262 264 261 244 235 227 218 217 216 213 210 215 219 222 222 226 232 233 234 223 218 220 224 228 212 213 234 252 259 259 269 266 263 266
193 197 184 218 226 276 226 214 258 219 252 246 257 265 268 270 266 263 254 241 233 222 224 222 218 216 213 215 221 224 225 229 230 236 234 228 226 217 211 222 248 270 258 247 246 242 250 249 268
191 193 222 199 199 293 206 263 281 204 251 231 243 251 266 278 270 269 260 247 231 220 225 227 220 212 214 216 221 225 225 224 229 234 232 227 197 201 191 215 245 237 228 228 227 237 256 264 268
198 174 115 273 179 220 240 230 233 357 284 205 318 293 289 284 270 260 257 250 235 227 229 229 223 214 212 214 220 225 228 219 225 225 228 215 193 193 249 205 222 218 220 217 237 252 263 265 255
189 180 74 126 138 214 242 252 218 210 224 271 277 283 295 294 287 267 252 249 253 246 231 223 218 213 214 212 217 220 214 216 218 211 216 227 218 210 210 198 197 205 215 224 243 244 237 238 258
111 169 169 144 190 236 262 255 181 165 202 220 275 294 301 298 290 274 260 249 247 244 237 221 211 206 215 212 214 208 205 209 216 203 200 214 215 203 197 193 203 207 215 211 215 230 246 265 277